Tracking 20724 objects as of 2-Jun-2020
HD Live streaming from Space Station
objects crossing your sky now

COSMOS 1410

Track COSMOS 1410 now!
10-day predictions
COSMOS 1410 is classified as:


NORAD ID: 13589
Int'l Code: 1982-096A
Perigee: 1,498.2 km
Apogee: 1,509.7 km
Inclination: 82.6 °
Period: 115.9 minutes
Semi major axis: 7874 km
RCS: 11.571 m2 (large)
Launch date: September 24, 1982
Source: Commonwealth of Independent States (former USSR) (CIS)
Launch site: PLESETSK MISSILE AND SPACE COMPLEX (PKMTR)
aabbcc
Your satellite tracking list
Your tracking list is empty




NASA's NSSDC Master Catalog

Two Line Element Set (TLE):
1 13589U 82096A   20154.59436203 +.00000001 +00000-0 -64066-4 0  9993
2 13589 082.6108 022.4156 0007282 085.7266 331.1337 12.42311107710085
Source of the keplerian elements: AFSPC